Weather History for New Bedford, MA

Change the Weather History Date:

Wednesday, September 21, 2011

  Actual Average Record
Temperature  
Mean Temperature 64 °F -  
Max Temperature 75 °F 71 °F 85 °F (1989)
Min Temperature 53 °F 56 °F 32 °F (2003)
Degree Days  
Heating Degree Days 1    
Growing Degree Days 14 (Base 50)    
Moisture  
Dew Point 60 °F    
Average Humidity 86    
Maximum Humidity 100    
Minimum Humidity 60    
Precipitation  
Precipitation 0.02 in - - ()
Sea Level Pressure  
Sea Level Pressure 30.22 in    
Wind  
Wind Speed 2 mph (South)    
Max Wind Speed 14 mph    
Max Gust Speed -    
Visibility 6 miles    
Events Fog , Rain    
Averages and records for this station are not official NWS values.
T = Trace of Precipitation, MM = Missing Value Source: NWS Daily Summary

Daily Weather History Graph

Daily Weather History Graph

Search for Another Location

Airport:

Trip Planner

Search our weather history database for the weather conditions in past years. The results will help you decide how hot, cold, wet, or windy it might be!

Date:

Astronomy

Sep. 21, 2011 Rise Set
Actual Time 6:29 AM EDT 6:43 PM EDT
Civil Twilight 6:02 AM EDT 7:11 PM EDT
Nautical Twilight 5:29 AM EDT 7:43 PM EDT
Astronomical Twilight 4:56 AM EDT 8:16 PM EDT
Moon No Moon Rise 2:55 PM EDT (9/21)
Length of Visible Light 13h 08m
Length of Day
12h 13m
Last Quarter, 39% of the Moon is Illuminated
Sep 21
Last Quarter
Sep 27
New
Oct 3
First Quarter
Oct 11
Full
Oct 19
Last Quarter

Hourly Weather History & Observations

Time (EDT) Temp. Dew Point Humidity Pressure Visibility Wind Dir Wind Speed Gust Speed Precip Events Conditions
12:53 AM 60.1 °F 57.9 °F 93% 30.17 in 4.0 mi Calm Calm - N/A   Overcast
1:53 AM 61.0 °F 59.0 °F 93% 30.18 in 9.0 mi SW 3.5 mph - N/A   Overcast
2:53 AM 60.8 °F 59.0 °F 94% 30.18 in 6.0 mi Calm Calm - N/A   Overcast
3:53 AM 61.0 °F 59.0 °F 93% 30.19 in 6.0 mi Calm Calm - N/A   Overcast
4:37 AM 59.0 °F 57.2 °F 94% 30.19 in 1.8 mi SSW 3.5 mph - N/A   Partly Cloudy
4:46 AM 59.0 °F 57.2 °F 94% 30.19 in 0.2 mi Calm Calm - N/A Fog Fog
4:53 AM 60.1 °F 57.9 °F 93% 30.19 in 0.5 mi Calm Calm - N/A Fog Fog
5:02 AM 57.2 °F 55.4 °F 94% 30.20 in 0.2 mi Calm Calm - N/A Fog Fog
5:34 AM 55.4 °F 53.6 °F 94% 30.21 in 0.2 mi Calm Calm - N/A Fog Fog
5:53 AM 57.0 °F 55.9 °F 96% 30.21 in 0.2 mi Calm Calm - N/A Fog Fog
6:38 AM 53.6 °F 53.6 °F 100% 30.22 in 0.2 mi Calm Calm - N/A Fog Fog
6:53 AM 55.9 °F 55.0 °F 97% 30.22 in 0.2 mi Calm Calm - N/A Fog Fog
7:06 AM 55.4 °F 55.4 °F 100% 30.22 in 2.0 mi Calm Calm - N/A   Mostly Cloudy
7:53 AM 59.0 °F 57.9 °F 96% 30.24 in 6.0 mi Calm Calm - N/A   Scattered Clouds
8:53 AM 66.9 °F 61.0 °F 81% 30.25 in 7.0 mi Calm Calm - N/A   Partly Cloudy
9:53 AM 69.8 °F 62.6 °F 78% 30.26 in 10.0 mi Calm Calm - N/A   Partly Cloudy
10:53 AM 72.0 °F 59.0 °F 64% 30.25 in 10.0 mi Calm Calm - N/A   Partly Cloudy
11:53 AM 75.0 °F 62.1 °F 64% 30.24 in 10.0 mi SE 9.2 mph - N/A   Mostly Cloudy
12:53 PM 73.0 °F 61.0 °F 66% 30.24 in 10.0 mi SSE 9.2 mph - N/A   Clear
1:53 PM 75.0 °F 62.1 °F 64% 30.23 in 10.0 mi SSW 11.5 mph - N/A   Scattered Clouds
2:53 PM 75.9 °F 61.0 °F 60% 30.22 in 10.0 mi SSW 9.2 mph - N/A   Clear
3:53 PM 72.0 °F 61.0 °F 68% 30.22 in 10.0 mi South 9.2 mph - N/A   Clear
4:53 PM 71.6 °F 60.8 °F 69% 30.22 in 10.0 mi South 13.8 mph - N/A   Clear
5:53 PM 70.0 °F 60.1 °F 71% 30.22 in 10.0 mi SSW 8.1 mph - N/A   Clear
6:53 PM 68.0 °F 62.1 °F 81% 30.23 in 10.0 mi SSW 4.6 mph - N/A   Clear
7:53 PM 66.0 °F 63.0 °F 90% 30.23 in 8.0 mi South 3.5 mph - N/A   Clear
8:53 PM 66.0 °F 63.0 °F 90% 30.25 in 9.0 mi Calm Calm - N/A   Overcast
9:24 PM 66.2 °F 64.4 °F 94% 30.24 in 10.0 mi SSE 6.9 mph - N/A   Overcast
9:53 PM 66.2 °F 64.4 °F 94% 30.24 in 10.0 mi SSE 6.9 mph - N/A   Overcast
10:53 PM 66.9 °F 64.0 °F 90% 30.23 in 8.0 mi SE 4.6 mph - N/A   Overcast
11:39 PM 66.2 °F 64.4 °F 94% 30.22 in 2.5 mi SE 4.6 mph - 0.02 in Rain Light Rain
11:46 PM 66.2 °F 64.4 °F 94% 30.22 in 6.0 mi ESE 3.5 mph - 0.02 in Rain Light Rain
11:53 PM 66.9 °F 64.9 °F 93% 30.21 in 8.0 mi ESE 3.5 mph - 0.02 in   Overcast